[[{"header":{"parameterUnit":"m.s-1","parameterCategory":1,"la1":30.2991,"la2":30.254,"lo1":-89.0895,"lo2":-89.0444,"dx":0.0017,"dy":0.0017,"nx":28,"ny":28,"refTime":"2022-11-07T03:00:00:Z","depth":0,"parameterNumber":2,"parameterNumberName":"U-component_of_WINDS"},"data":[0,0,0,0,0,0,0,0,0,0,0,0,0,0,0,0,0,0,0,0,0,0,0,0,0,0,0,0,0,0,0,0,0,0,0,0,0,0,0,0,0,0,0,0,0,0,0,0,0,0,0,0,0,0,0,0,0,0,-0.5731,-0.5731,0,-0.5738,-0.5738,-0.5738,-0.5686,-0.5685,-0.5684,-0.5682,-0.5693,-0.5695,-0.5696,0,0,0,0,0,0,0,0,0,0,0,0,0,-0.5677,-0.5678,-0.5731,-0.5731,-0.5731,-0.5738,-0.5738,-0.5738,-0.5687,-0.5685,-0.5683,-0.5681,-0.5693,-0.5694,-0.5696,0,0,0,0,0,0,0,0,0,0,0,0,0,-0.5694,-0.5678,-0.5731,-0.5706,-0.5704,-0.5738,-0.5738,-0.5738,-0.5687,-0.5685,-0.5683,-0.5681,-0.5692,-0.5694,-0.5697,-0.5756,0,0,-0.5704,-0.5705,0,0,0,0,0,0,0,0,-0.5693,-0.5696,-0.571,-0.5708,-0.5706,-0.5709,-0.5723,-0.5744,-0.5688,-0.5694,-0.5682,-0.568,-0.57,-0.5702,-0.5708,-0.5756,-0.5757,-0.5705,-0.5706,-0.5707,-0.5708,0,0,0,0,0,0,0,-0.5692,-0.5695,-0.5734,-0.571,-0.5708,-0.5696,-0.5696,-0.5727,-0.5709,-0.5693,-0.5689,-0.5691,-0.5699,-0.5706,-0.5708,-0.5757,-0.5704,-0.5707,-0.5708,-0.5709,-0.5854,-0.5856,0,0,0,0,0,0,-0.5693,-0.5695,-0.5734,-0.5734,-0.5694,-0.5699,-0.5699,-0.571,-0.5709,-0.5706,-0.5692,-0.5688,-0.5703,-0.5705,-0.5708,-0.5778,-0.5707,-0.5709,-0.5711,-0.5852,-0.5855,-0.5857,0,0,0,0,0,0,-0.5692,-0.5697,-0.5734,-0.5713,-0.5717,-0.5702,-0.5715,-0.5712,-0.5719,-0.5708,-0.5705,-0.5703,-0.5701,-0.5705,-0.5744,-0.5778,-0.571,-0.5713,-0.5849,-0.5853,-0.5856,-0.5918,0,0,0,0,0,0,-0.5691,-0.5697,-0.5719,-0.5714,-0.5718,-0.5769,-0.5717,-0.5713,-0.5723,-0.5717,-0.5717,-0.5715,-0.57,-0.5741,-0.5747,-0.578,-0.5715,-0.5846,-0.5851,-0.5855,-0.5913,-0.5924,-0.5932,0,0,0,0,0,-0.5689,-0.5737,-0.5721,-0.5726,-0.5745,-0.5771,-0.5773,-0.5753,-0.5725,-0.5748,-0.5741,-0.5715,-0.5773,-0.5745,-0.5751,-0.5786,-0.5844,-0.5849,-0.5854,-0.5909,-0.5922,-0.5932,0,0,0,0,0,0,-0.5749,-0.5736,-0.5718,-0.5765,-0.5769,-0.5762,-0.579,-0.5767,-0.578,-0.5775,-0.5751,-0.5751,-0.5795,-0.5794,-0.5764,-0.5843,-0.5803,-0.581,-0.5843,-0.5855,-0.5864,-0.5865,-0.5717,0,0,0,0,0,-0.5767,-0.5787,-0.5776,-0.5819,-0.5822,-0.5805,-0.5816,-0.58,-0.5804,-0.5806,-0.5802,-0.5808,-0.5827,-0.584,-0.5857,-0.5912,-0.5912,-0.5939,-0.5948,-0.5956,-0.5963,-0.5993,-0.6005,-0.5875,-0.5875,-0.5875,0,0,-0.5806,-0.5801,-0.5816,-0.5831,-0.5832,-0.5855,-0.5807,-0.5834,-0.5851,-0.581,-0.5847,-0.5844,-0.5849,-0.5896,-0.5917,-0.5897,-0.5999,-0.5963,-0.5969,-0.5972,-0.6,-0.6012,-0.6023,-0.5878,-0.5878,-0.5877,0,0,-0.5888,-0.5886,-0.5922,-0.5924,-0.5926,-0.5914,-0.5923,-0.5918,-0.5915,-0.5951,-0.592,-0.5941,-0.5974,-0.5979,-0.5986,-0.6068,-0.6046,-0.6075,-0.6126,-0.6155,-0.6165,-0.6174,-0.6206,-0.6217,-0.6081,-0.6081,-0.6081,0,-0.5937,-0.5969,-0.5944,-0.5972,-0.598,-0.5941,-0.5979,-0.5982,-0.599,-0.5997,-0.5973,-0.6014,-0.6014,-0.6063,-0.6083,-0.6089,-0.6099,-0.6076,-0.6166,-0.6174,-0.6183,-0.6212,-0.6224,-0.6085,-0.6084,-0.6084,-0.6084,0,-0.603,-0.6053,-0.6082,-0.6089,-0.6099,-0.6132,-0.6113,-0.6126,-0.6109,-0.61,-0.6138,-0.6136,-0.6153,-0.6162,-0.6146,-0.6209,-0.6196,-0.6169,-0.613,-0.6199,-0.6227,-0.6238,-0.609,-0.6089,-0.6088,-0.6087,0,0,-0.6153,-0.6144,-0.6155,-0.6158,-0.6156,-0.6174,-0.6205,-0.6219,-0.6232,-0.6238,-0.6265,-0.6293,-0.6268,-0.6276,-0.6259,-0.6285,-0.6352,-0.6255,-0.6255,-0.6275,-0.6423,-0.6445,-0.6458,-0.6335,-0.6338,-0.6339,-0.6423,0,-0.6235,-0.6287,-0.6264,-0.6318,-0.634,-0.6302,-0.6329,-0.6332,-0.6324,-0.6341,-0.6333,-0.6354,-0.6318,-0.6323,-0.6346,-0.6339,-0.6382,-0.6332,-0.6362,-0.6363,-0.6365,-0.6472,-0.6496,-0.6575,-0.6433,-0.6435,-0.6436,0,-0.6339,-0.6348,-0.6404,-0.6398,-0.6406,-0.6431,-0.6442,-0.6459,-0.6461,-0.6453,-0.6461,-0.6438,-0.6469,-0.6427,-0.647,-0.6437,-0.6447,-0.6445,-0.6448,-0.6452,-0.6406,-0.6482,-0.66,-0.6613,-0.6453,-0.6451,-0.645,0,-0.6426,-0.6452,-0.6489,-0.6492,-0.6485,-0.6504,-0.6502,-0.6501,-0.6511,-0.6521,-0.6527,-0.6541,-0.655,-0.6561,-0.6543,-0.6514,-0.6589,-0.6545,-0.6586,-0.6587,-0.6606,-0.6606,-0.673,-0.6608,-0.6608,-0.6608,-0.6608,0,-0.6522,-0.6559,-0.6528,-0.6551,-0.6591,-0.6564,-0.6604,-0.6598,-0.6598,-0.662,-0.6588,-0.661,-0.6583,-0.6603,-0.6589,-0.6627,-0.6631,-0.6627,-0.6623,-0.6631,-0.6632,-0.664,-0.6635,-0.6611,-0.661,-0.661,-0.6609,0,-0.6628,-0.6608,-0.6646,-0.6636,-0.6634,-0.6664,-0.6655,-0.6677,-0.6665,-0.6694,-0.6699,-0.6682,-0.6703,-0.6685,-0.6706,-0.6697,-0.6749,-0.6736,-0.6748,-0.6745,-0.6788,-0.6785,-0.6924,-0.6941,-0.6806,-0.6807,-0.6808,0,-0.6692,-0.6719,-0.671,-0.6722,-0.6722,-0.6741,-0.675,-0.6724,-0.6736,-0.6739,-0.6761,-0.6778,-0.6792,-0.6828,-0.6818,-0.6834,-0.6823,-0.687,-0.6825,-0.6833,-0.6826,-0.6826,-0.683,-0.688,-0.6882,-0.6883,-0.6884,0,-0.6808,-0.6796,-0.6811,-0.6821,-0.6833,-0.6841,-0.6846,-0.6858,-0.6831,-0.6845,-0.6866,-0.6876,-0.6896,-0.6915,-0.6927,-0.6926,-0.6902,-0.6898,-0.6908,-0.6919,-0.6926,-0.6925,-0.6776,-0.6896,-0.6895,-0.6894,-0.6893,-0.6893,-0.6896,-0.6919,-0.6916,-0.6933,-0.6933,-0.6939,-0.6958,-0.6948,-0.6964,-0.6978,-0.6961,-0.6987,-0.6987,-0.7001,-0.7003,-0.7023,-0.7004,-0.7019,-0.7023,-0.7028,-0.7035,-0.6919,-0.7025,-0.7025,-0.7024,-0.7024,-0.7024,0,-0.7013,-0.7009,-0.7024,-0.7032,-0.7045,-0.7017,-0.7021,-0.7035,-0.7057,-0.7059,-0.7072,-0.7096,-0.7113,-0.7104,-0.7119,-0.7138,-0.7127,-0.7143,-0.7143,-0.7144,-0.7051,-0.7041,-0.7151,-0.7151,-0.7151,-0.7151,-0.7151,-0.7151,-0.7076,-0.7112,-0.71,-0.7137,-0.7132,-0.7156,-0.7161,-0.7166,-0.7167,-0.7194,-0.7208,-0.7201,-0.7199,-0.7214,-0.7229,-0.7226,-0.7234,-0.7255,-0.7248,-0.7162,-0.715,-0.7138,-0.7129,-0.7256,-0.7257,-0.734,-0.7341,-0.7341]},{"header":{"parameterUnit":"m.s-1","parameterCategory":1,"la1":30.2991,"la2":30.254,"lo1":-89.0895,"lo2":-89.0444,"dx":0.0017,"dy":0.0017,"nx":28,"ny":28,"refTime":"2022-11-07T03:00:00:Z","depth":0,"parameterNumber":3,"parameterNumberName":"V-component_of_WINDS"},"data":[0,0,0,0,0,0,0,0,0,0,0,0,0,0,0,0,0,0,0,0,0,0,0,0,0,0,0,0,0,0,0,0,0,0,0,0,0,0,0,0,0,0,0,0,0,0,0,0,0,0,0,0,0,0,0,0,0,0,-1.6813,-1.6814,0,-1.682,-1.682,-1.682,-1.6793,-1.6792,-1.6792,-1.6791,-1.6796,-1.6796,-1.6797,0,0,0,0,0,0,0,0,0,0,0,0,0,-1.6777,-1.6777,-1.6813,-1.6814,-1.6814,-1.682,-1.682,-1.682,-1.6793,-1.6792,-1.6791,-1.679,-1.6795,-1.6796,-1.6797,0,0,0,0,0,0,0,0,0,0,0,0,0,-1.6789,-1.6778,-1.6813,-1.6801,-1.68,-1.682,-1.682,-1.682,-1.6793,-1.6792,-1.6791,-1.679,-1.6795,-1.6796,-1.6797,-1.6829,0,0,-1.6801,-1.6802,0,0,0,0,0,0,0,0,-1.6788,-1.679,-1.6803,-1.6802,-1.6801,-1.6804,-1.6809,-1.6823,-1.6794,-1.6796,-1.6791,-1.6789,-1.6799,-1.68,-1.6804,-1.6829,-1.6829,-1.6802,-1.6802,-1.6803,-1.6803,0,0,0,0,0,0,0,-1.6787,-1.679,-1.6816,-1.6803,-1.6802,-1.6795,-1.6795,-1.6811,-1.6804,-1.6796,-1.6794,-1.6795,-1.6799,-1.6803,-1.6804,-1.6829,-1.6802,-1.6803,-1.6803,-1.6804,-1.6881,-1.6882,0,0,0,0,0,0,-1.6788,-1.6789,-1.6816,-1.6816,-1.6792,-1.6796,-1.6797,-1.6804,-1.6804,-1.6803,-1.6796,-1.6794,-1.6801,-1.6802,-1.6804,-1.6841,-1.6803,-1.6804,-1.6805,-1.688,-1.6881,-1.6883,0,0,0,0,0,0,-1.6788,-1.6791,-1.6815,-1.6802,-1.6805,-1.6798,-1.6807,-1.6805,-1.6809,-1.6804,-1.6802,-1.6802,-1.68,-1.6802,-1.6823,-1.6841,-1.6805,-1.6806,-1.6878,-1.688,-1.6882,-1.6915,0,0,0,0,0,0,-1.6787,-1.6791,-1.6803,-1.6803,-1.6806,-1.6835,-1.6808,-1.6806,-1.6812,-1.6809,-1.6809,-1.6808,-1.6799,-1.6821,-1.6824,-1.6842,-1.6807,-1.6877,-1.6879,-1.6881,-1.6912,-1.6918,-1.6923,0,0,0,0,0,-1.6786,-1.6812,-1.6804,-1.6807,-1.6821,-1.6836,-1.6838,-1.6828,-1.6813,-1.6825,-1.6822,-1.6808,-1.6838,-1.6824,-1.6827,-1.6845,-1.6875,-1.6878,-1.6881,-1.691,-1.6917,-1.6922,0,0,0,0,0,0,-1.6814,-1.6811,-1.6803,-1.683,-1.6833,-1.6832,-1.6846,-1.6835,-1.6843,-1.684,-1.6827,-1.6827,-1.685,-1.685,-1.6833,-1.6875,-1.6854,-1.6858,-1.6875,-1.6881,-1.6886,-1.6886,-1.6808,0,0,0,0,0,-1.6823,-1.6836,-1.6833,-1.6857,-1.686,-1.6853,-1.6859,-1.6852,-1.6855,-1.6856,-1.6854,-1.6857,-1.6867,-1.6874,-1.6883,-1.6912,-1.6912,-1.6926,-1.6931,-1.6935,-1.6939,-1.6954,-1.6961,-1.6892,-1.6892,-1.6892,0,0,-1.6842,-1.6843,-1.6852,-1.6863,-1.6865,-1.6879,-1.6854,-1.6869,-1.6879,-1.6858,-1.6878,-1.6877,-1.6879,-1.6904,-1.6915,-1.6905,-1.6958,-1.6939,-1.6943,-1.6944,-1.6958,-1.6964,-1.697,-1.6894,-1.6894,-1.6893,0,0,-1.6885,-1.6886,-1.6907,-1.691,-1.6913,-1.6909,-1.6914,-1.6914,-1.6912,-1.6932,-1.6916,-1.6928,-1.6946,-1.6948,-1.6952,-1.6996,-1.6983,-1.6999,-1.7026,-1.7041,-1.7046,-1.7051,-1.7067,-1.7073,-1.7002,-1.7003,-1.7003,0,-1.6908,-1.6928,-1.6918,-1.6935,-1.6941,-1.6923,-1.6943,-1.6946,-1.6952,-1.6956,-1.6944,-1.6966,-1.6967,-1.6992,-1.7003,-1.7007,-1.7012,-1.6999,-1.7047,-1.7051,-1.7055,-1.707,-1.7076,-1.7005,-1.7004,-1.7004,-1.7004,0,-1.6957,-1.6972,-1.6988,-1.6995,-1.7002,-1.702,-1.7013,-1.7021,-1.7013,-1.701,-1.703,-1.703,-1.7039,-1.7045,-1.7037,-1.7069,-1.7063,-1.7049,-1.7027,-1.7064,-1.7078,-1.7084,-1.7007,-1.7007,-1.7006,-1.7006,0,0,-1.7017,-1.7019,-1.7025,-1.7029,-1.7032,-1.7042,-1.706,-1.7069,-1.7077,-1.7082,-1.7096,-1.7112,-1.7099,-1.7104,-1.7095,-1.7109,-1.7144,-1.7093,-1.7093,-1.7103,-1.718,-1.7191,-1.7198,-1.7136,-1.7137,-1.7137,-1.718,0,-1.7059,-1.7089,-1.7081,-1.7112,-1.7125,-1.7108,-1.7123,-1.7127,-1.7124,-1.7135,-1.7131,-1.7143,-1.7125,-1.7128,-1.714,-1.7137,-1.7159,-1.7134,-1.7149,-1.7149,-1.7149,-1.7205,-1.7216,-1.7256,-1.7185,-1.7186,-1.7187,0,-1.7111,-1.7119,-1.7151,-1.7153,-1.7158,-1.7172,-1.718,-1.7191,-1.7194,-1.7191,-1.7196,-1.7186,-1.7202,-1.7181,-1.7204,-1.7187,-1.7193,-1.7192,-1.7193,-1.7194,-1.717,-1.7207,-1.7269,-1.7275,-1.7195,-1.7195,-1.7194,0,-1.7152,-1.717,-1.7192,-1.7196,-1.7198,-1.7208,-1.7209,-1.7211,-1.7218,-1.7225,-1.7229,-1.7238,-1.7242,-1.7249,-1.7241,-1.7226,-1.7266,-1.7243,-1.7263,-1.7264,-1.7272,-1.7272,-1.7336,-1.7276,-1.7276,-1.7276,-1.7276,0,-1.7199,-1.7219,-1.7211,-1.7224,-1.7246,-1.7237,-1.7259,-1.7258,-1.726,-1.7273,-1.7259,-1.7271,-1.7259,-1.727,-1.7264,-1.7284,-1.7286,-1.7284,-1.7283,-1.7286,-1.7286,-1.7289,-1.7286,-1.7277,-1.7277,-1.7277,-1.7276,0,-1.7248,-1.7243,-1.7266,-1.7266,-1.7267,-1.7283,-1.7283,-1.7296,-1.7292,-1.7308,-1.7312,-1.7306,-1.7318,-1.7311,-1.7323,-1.7319,-1.7346,-1.734,-1.7345,-1.7343,-1.7364,-1.7362,-1.7432,-1.744,-1.7375,-1.7376,-1.7376,0,-1.7279,-1.7294,-1.7297,-1.7305,-1.7307,-1.732,-1.7327,-1.7317,-1.7325,-1.733,-1.7342,-1.7353,-1.7362,-1.7382,-1.7379,-1.7388,-1.7382,-1.7406,-1.7384,-1.7387,-1.7383,-1.7382,-1.7384,-1.7411,-1.7411,-1.7412,-1.7412,0,-1.7334,-1.7331,-1.7341,-1.7351,-1.736,-1.7367,-1.7373,-1.738,-1.7371,-1.7381,-1.7393,-1.74,-1.7413,-1.7424,-1.7433,-1.7433,-1.7421,-1.742,-1.7425,-1.7428,-1.7431,-1.743,-1.7357,-1.7418,-1.7417,-1.7417,-1.7417,-1.7417,-1.7374,-1.7387,-1.7392,-1.7404,-1.7408,-1.7414,-1.7426,-1.7424,-1.7435,-1.7445,-1.7439,-1.7454,-1.7457,-1.7467,-1.747,-1.7481,-1.7471,-1.7479,-1.7481,-1.7483,-1.7486,-1.7429,-1.7482,-1.7482,-1.7482,-1.7482,-1.7482,0,-1.7429,-1.7431,-1.7442,-1.7452,-1.7462,-1.7451,-1.7457,-1.7466,-1.7479,-1.7484,-1.7493,-1.7508,-1.7519,-1.7517,-1.7526,-1.7536,-1.7531,-1.7539,-1.7538,-1.7539,-1.7494,-1.7488,-1.7543,-1.7543,-1.7543,-1.7543,-1.7543,-1.7543,-1.7458,-1.748,-1.7478,-1.7501,-1.7503,-1.7518,-1.7523,-1.7528,-1.7532,-1.7549,-1.7559,-1.7558,-1.7559,-1.7569,-1.7579,-1.7578,-1.7582,-1.7592,-1.759,-1.7548,-1.7542,-1.7536,-1.7531,-1.7593,-1.7594,-1.7634,-1.7634,-1.7634]}]]